This is the latest recevied weather packets stored in our database for station/object K0JRF-13. If no packets are shown the sender has not sent any weather packets the latest 10 day(s).
| Time | Temp. | Humidity | Pressure | Rain* | Wind** | Luminosity | Snow |
|---|---|---|---|---|---|---|---|
| 1787677049 | 23.89° C | 65% | 1020 hPa | - | - | - | - |
| 1787676449 | 23.33° C | 65% | 1020 hPa | - | - | - | - |
| 1787675849 | 23.33° C | 62% | 1020 hPa | - | - | - | - |
| 1787675249 | 23.33° C | 63% | 1020 hPa | - | - | - | - |
| 1787674649 | 22.22° C | 65% | 1020 hPa | - | - | - | - |
| 1787674049 | 22.22° C | 67% | 1019.6 hPa | - | - | - | - |
| 1787673449 | 22.22° C | 67% | 1020 hPa | - | - | - | - |
| 1787672849 | 22.78° C | 66% | 1020 hPa | - | - | - | - |
| 1787672249 | 22.78° C | 67% | 1020.3 hPa | - | - | - | - |
| 1787671649 | 22.78° C | 66% | 1020 hPa | - | - | - | - |
| 1787671049 | 22.78° C | 69% | 1020 hPa | - | - | - | - |
| 1787670449 | 21.11° C | 70% | 1020 hPa | - | - | - | - |
| 1787669849 | 20.56° C | 73% | 1020 hPa | - | - | - | - |
| 1787669249 | 20.56° C | 74% | 1020 hPa | - | - | - | - |
| 1787668649 | 20.56° C | 75% | 1019.6 hPa | - | - | - | - |
| 1787668049 | 20.56° C | 79% | 1019.6 hPa | - | - | - | - |
| 1787667449 | 21.11° C | 80% | 1019.3 hPa | - | - | - | - |
| 1787666849 | 20° C | 81% | 1019.6 hPa | - | - | - | - |
| 1787666249 | 21.11° C | 78% | 1019.6 hPa | - | - | - | - |
| 1787665649 | 20° C | 83% | 1019.3 hPa | - | - | - | - |
| 1787665049 | 19.44° C | 87% | 1019 hPa | - | - | - | - |
| 1787664449 | 19.44° C | 87% | 1019.3 hPa | - | - | - | - |
| 1787663849 | 19.44° C | 87% | 1019 hPa | - | - | - | - |
| 1787663249 | 19.44° C | 89% | 1019 hPa | - | - | - | - |
| 1787662649 | 18.33° C | 89% | 1019 hPa | - | - | - | - |
* Rain since midnight (hover to see other rain measurements)
** Current wind speed in m/s (hover to see current wind gust speed)